Wetbulb
58.92 61.21 60.55 59.39 56.21 54.46 53.69 54.37 54.64 55.17 54.93 55.19 55.87 54.22 53.16 53.08 53.67 53.28 53.28 53.45 53.05 52.62 52.28 52.73 52.87 54.21 51.97 51.51 51.35 50.97 49.67 47.52 46.09 47.92 48.80 51.41 52.75 53.20 54.97 56.18 58.74 57.89 58.69
58.96 59.50 57.87 56.96 55.68 55.11 54.56 54.40 54.89 55.17 55.98 55.91 56.00 55.35 53.95 53.48 52.87 53.10 52.82 53.61 52.29 51.68 52.04 52.20 52.05 54.67 53.28 52.00 51.79 51.46 50.98 50.99 48.26 48.79 48.32 50.23 52.01 53.12 54.06 54.80 57.90 59.75 58.91
59.33 58.06 57.63 56.81 56.10 54.99 54.70 55.12 55.08 55.34 55.63 55.75 56.44 55.35 54.84 54.38 53.38 53.19 52.99 53.46 53.64 52.64 51.47 51.20 51.62 52.75 52.28 51.95 52.47 53.47 52.69 53.87 52.53 50.72 50.73 51.51 52.35 52.47 52.39 54.25 55.60 56.25 59.18
58.67 57.88 56.62 56.10 55.58 55.60 56.11 56.04 55.58 55.82 55.43 55.48 56.21 56.42 56.09 55.47 54.83 53.75 53.55 52.28 52.57 51.94 51.74 51.74 52.16 52.33 52.06 52.58 53.55 53.10 53.60 52.38 51.81 51.32 50.90 50.77 50.92 51.90 52.31 52.69 52.49 54.88 56.59
56.12 55.29 55.06 55.90 55.77 56.35 56.84 56.67 56.78 56.38 56.43 56.03 56.01 56.44 56.17 56.37 57.22 54.42 53.62 52.25 51.20 51.18 51.54 52.26 52.04 53.84 57.90 56.85 53.99 52.25 51.28 50.98 50.97 50.76 50.15 50.30 50.39 50.87 51.18 52.68 53.13 54.93 55.24
55.06 55.06 56.24 56.15 56.94 56.77 56.52 56.89 56.75 56.83 56.81 56.93 56.93 56.79 56.26 57.61 57.13 55.03 53.09 51.16 51.89 51.68 50.91 51.50 52.10 55.11 56.09 56.64 56.64 56.51 54.16 51.15 49.70 49.75 50.15 50.00 50.49 51.07 51.75 51.85 51.83 51.51 51.35
56.17 57.34 58.44 57.99 58.55 58.34 58.55 56.25 55.95 56.53 56.12 55.59 56.23 56.43 56.20 56.32 54.96 52.94 54.12 51.43 51.16 51.17 51.28 51.46 52.14 55.45 55.88 55.89 55.65 56.22 55.28 54.57 54.69 51.84 50.08 50.31 50.45 51.95 52.58 51.14 50.76 50.87 50.62
56.35 56.52 58.22 57.50 57.12 57.35 56.77 56.81 56.51 56.77 56.91 57.17 56.87 57.20 56.85 54.50 47.94 49.58 52.03 52.23 51.03 51.85 52.44 52.13 51.61 52.74 54.49 55.75 55.04 54.78 55.10 55.04 54.36 54.72 53.31 53.57 52.69 53.53 54.02 53.53 52.33 52.47 52.79
52.29 52.86 54.97 55.23 54.01 53.92 54.37 53.95 55.08 54.70 54.48 55.37 55.37 50.00 48.32 42.97 43.53 43.27 48.75 51.40 51.02 51.87 53.22 52.76 53.34 54.55 53.76 53.07 54.06 52.89 52.48 52.76 56.25 55.36 54.16 53.87 50.92 49.49 49.35 50.10 49.26 49.51 48.72
50.73 51.56 52.35 52.52 51.30 50.42 50.95 51.11 51.17 51.87 52.80 53.54 52.49 49.58 47.26 43.23 41.26 41.63 43.42 47.94 47.16 47.84 49.45 50.46 52.08 52.15 50.38 49.42 53.57 51.42 49.69 50.78 53.54 52.51 53.29 53.44 50.72 51.51 48.57 50.52 50.77 49.78 49.17
48.90 49.01 48.38 48.91 48.86 46.85 44.57 45.83 49.43 49.68 50.60 50.17 50.28 50.25 48.80 44.78 40.87 40.84 41.36 40.71 41.99 42.31 46.29 48.85 50.12 45.92 44.76 45.33 47.40 50.81 50.43 50.61 50.57 49.69 50.43 52.26 54.18 54.93 54.90 52.29 52.50 52.62 50.96
45.74 44.93 44.24 45.34 45.89 43.10 41.19 43.49 42.58 45.56 46.27 45.64 43.37 42.29 45.32 43.72 41.67 40.28 40.82 40.43 41.24 39.80 41.00 44.41 44.52 43.10 43.15 44.38 45.44 46.45 46.40 47.52 47.92 48.53 49.04 50.26 52.35 53.87 54.89 54.93 55.23 55.05 55.23
42.00 41.07 41.43 42.59 40.80 40.01 40.43 38.86 39.25 38.12 38.25 36.41 35.73 34.61 36.84 39.35 35.92 40.15 39.63 39.65 40.67 39.78 40.32 41.13 41.35 42.20 43.22 45.22 45.69 45.60 45.49 47.25 48.44 47.66 48.80 49.87 52.76 54.40 55.26 54.06 54.62 55.00 56.35
39.15 39.47 39.82 37.56 38.22 38.23 39.38 39.55 36.50 36.07 34.86 34.74 33.91 33.07 33.67 35.79 35.24 33.10 33.75 33.54 39.02 38.79 39.97 39.22 42.17 43.60 44.99 46.95 49.80 50.01 50.05 48.68 49.55 49.71 50.09 51.72 55.12 54.04 53.81 53.47 52.12 52.17 52.60
38.44 38.76 37.60 36.50 35.62 36.10 36.76 36.96 37.37 36.16 36.22 33.83 33.67 33.52 32.81 32.88 34.51 35.46 35.57 34.31 32.33 34.76 36.69 42.07 45.71 43.72 42.90 44.29 46.41 47.65 48.71 47.84 50.25 52.91 52.28 52.90 52.94 55.11 53.86 53.63 52.36 51.41 49.35
37.25 36.90 36.45 35.46 36.02 36.05 36.32 36.11 39.48 39.63 40.25 38.55 37.91 35.60 35.59 37.22 37.10 36.98 36.92 36.60 36.53 36.53 35.96 39.15 38.14 40.46 40.64 41.10 41.64 41.94 45.49 46.84 45.99 47.23 49.66 52.55 53.40 54.09 54.77 54.16 52.65 51.96 50.81
37.54 37.02 37.12 37.85 35.23 33.90 34.26 33.68 32.57 36.98 39.69 39.88 38.95 38.39 38.23 35.41 36.53 36.52 36.63 36.20 36.19 35.36 34.21 38.14 36.98 37.54 38.93 39.73 40.92 41.00 40.77 43.87 45.50 45.03 46.95 47.15 52.12 54.74 50.71 52.98 53.81 53.41 52.55
37.10 40.43 33.47 33.53 33.50 33.45 33.61 33.59 33.69 33.22 32.40 33.44 37.58 37.58 37.29 36.56 36.51 36.10 35.89 38.00 37.14 37.46 36.42 35.79 36.58 37.54 37.27 38.70 38.94 39.78 40.07 41.79 42.82 43.41 44.93 46.38 46.43 50.02 53.69 52.84 53.56 53.29 53.11
36.19 35.37 34.14 34.00 33.86 34.90 33.92 34.40 34.28 33.55 33.26 32.62 33.60 36.53 37.11 36.53 36.37 36.05 36.82 35.12 34.69 34.15 33.78 34.26 34.77 35.13 36.21 37.80 38.63 41.03 40.72 40.17 41.05 42.01 42.60 44.16 44.74 46.32 46.57 49.73 54.01 48.91 49.55
36.46 39.54 37.02 34.10 33.55 33.59 34.88 33.86 33.53 33.33 32.86 32.76 32.92 35.06 35.14 34.21 32.13 32.60 34.51 34.50 33.67 33.22 33.43 33.26 33.58 34.18 34.99 36.14 38.02 39.04 40.60 40.49 40.23 40.92 40.94 41.76 42.61 44.59 43.52 43.70 45.48 52.84 51.83
36.21 35.92 36.95 34.85 34.10 33.54 33.77 35.51 34.81 33.71 33.04 33.08 34.42 36.05 32.23 31.89 31.46 33.54 32.96 33.65 33.51 34.05 34.20 33.42 31.93 32.65 33.58 33.91 34.39 35.44 37.57 39.79 39.13 40.07 40.15 40.04 41.06 40.84 42.21 42.08 44.63 46.04 52.77
34.88 34.69 35.35 34.38 34.74 33.42 33.33 35.39 35.02 34.71 34.70 34.08 33.86 34.73 32.37 32.38 35.54 35.43 33.31 33.51 33.85 34.44 34.67 33.94 32.87 33.29 34.05 34.76 35.56 35.99 34.74 34.10 35.96 36.55 37.11 38.72 38.62 40.23 40.62 41.47 42.71 44.48 46.37
34.20 34.50 33.99 33.24 33.40 34.73 34.09 35.16 34.80 33.77 33.27 33.28 33.53 34.10 34.17 33.99 36.14 34.57 33.95 34.39 34.19 34.37 34.76 34.35 33.34 32.48 34.30 36.89 37.29 34.48 32.43 32.60 35.56 36.03 36.02 37.40 37.49 38.51 39.76 39.58 40.36 41.66 44.63
34.07 33.76 33.12 32.62 33.24 34.10 35.33 35.17 34.88 34.41 34.00 34.09 34.14 34.76 34.62 33.66 34.20 34.85 34.76 35.98 35.00 34.62 34.51 34.43 34.18 34.05 34.02 34.31 34.84 33.76 32.22 31.95 33.99 33.57 34.74 34.73 36.03 36.49 38.46 39.37 39.99 41.14 42.61
32.66 32.65 32.73 33.56 34.87 36.23 34.86 35.11 34.21 33.70 34.11 34.21 33.80 33.66 33.49 34.23 34.03 35.53 35.09 34.88 34.91 34.20 34.42 34.51 34.38 35.34 35.44 34.70 34.04 33.66 31.00 30.72 31.88 31.07 33.22 34.48 34.73 36.07 36.28 38.53 39.09 39.94 40.81
33.39 34.22 35.45 35.40 35.31 35.43 35.27 34.28 32.96 33.42 33.78 33.69 33.82 34.18 34.45 33.95 33.98 34.97 34.64 35.00 34.91 35.00 35.10 34.58 35.13 35.79 34.09 33.90 34.78 31.92 30.94 30.78 30.97 30.67 32.25 33.81 33.77 34.38 35.03 35.57 37.62 39.09 39.78
MSLP
1015.23 1015.67 1015.89 1016.41 1016.92 1017.17 1017.44 1017.63 1017.85 1017.93 1017.82 1017.76 1017.67 1017.65 1017.64 1017.64 1017.64 1017.73 1017.75 1017.58 1017.48 1017.36 1017.23 1017.18 1017.08 1016.76 1016.70 1016.56 1016.55 1016.52 1016.60 1016.59 1016.66 1015.65 1014.88 1013.98 1013.79 1013.49 1012.97 1012.65 1012.30 1012.16 1011.96
1015.02 1015.31 1015.77 1016.30 1016.71 1017.03 1017.26 1017.45 1017.57 1017.58 1017.45 1017.38 1017.27 1017.21 1017.17 1017.11 1017.06 1017.16 1017.15 1016.99 1016.94 1016.95 1016.75 1016.74 1016.62 1016.34 1016.23 1016.08 1016.16 1016.25 1016.13 1015.93 1016.08 1015.62 1014.92 1014.22 1013.73 1013.26 1013.04 1012.79 1012.27 1011.74 1011.70
1014.90 1015.42 1015.97 1016.21 1016.63 1016.74 1016.95 1017.12 1017.31 1017.31 1017.21 1017.02 1016.88 1016.80 1016.69 1016.60 1016.58 1016.50 1016.40 1016.30 1016.29 1016.33 1016.19 1016.13 1015.98 1015.88 1015.84 1015.70 1015.61 1015.64 1015.53 1015.27 1015.30 1015.20 1014.71 1014.00 1013.43 1013.03 1012.86 1012.55 1012.19 1011.75 1011.31
1014.87 1015.54 1015.90 1015.97 1016.21 1016.49 1016.55 1016.76 1016.88 1016.79 1016.67 1016.53 1016.41 1016.30 1016.20 1016.10 1016.04 1015.91 1015.79 1015.75 1015.72 1015.67 1015.56 1015.45 1015.31 1015.28 1015.19 1015.06 1014.99 1015.03 1014.90 1014.86 1014.82 1014.72 1014.43 1013.97 1013.52 1012.86 1012.80 1012.73 1012.24 1011.66 1011.30
1015.07 1015.51 1015.59 1015.57 1015.71 1015.95 1016.06 1016.18 1016.19 1016.12 1015.92 1015.84 1015.82 1015.75 1015.64 1015.55 1015.41 1015.33 1015.28 1015.24 1015.28 1015.23 1015.02 1014.93 1014.75 1014.53 1014.34 1014.12 1014.21 1014.20 1014.39 1014.31 1014.39 1014.45 1014.36 1013.95 1013.46 1013.12 1013.00 1012.46 1012.25 1011.65 1011.09
1014.99 1015.18 1015.07 1015.17 1015.44 1015.57 1015.71 1015.82 1015.81 1015.72 1015.60 1015.48 1015.40 1015.31 1015.25 1015.09 1014.82 1014.70 1014.72 1014.81 1014.78 1014.78 1014.84 1014.45 1014.19 1014.00 1013.73 1013.41 1013.30 1013.29 1013.28 1013.53 1013.70 1013.90 1013.87 1013.70 1013.28 1012.91 1012.59 1012.48 1012.21 1011.96 1011.49
1014.96 1015.18 1015.35 1015.45 1015.75 1015.79 1015.73 1015.88 1015.92 1015.81 1015.58 1015.39 1015.16 1015.03 1014.94 1014.68 1014.52 1014.32 1014.32 1014.24 1014.27 1014.21 1014.24 1014.12 1013.89 1013.46 1013.27 1013.04 1012.80 1012.69 1012.50 1012.46 1012.57 1012.73 1013.04 1012.97 1012.73 1012.27 1012.16 1012.03 1011.97 1011.82 1011.49
1016.04 1016.17 1016.14 1016.11 1016.41 1016.57 1016.54 1016.48 1016.30 1016.08 1015.92 1015.68 1015.39 1015.15 1014.99 1015.65 1015.30 1014.46 1013.85 1013.70 1013.70 1013.66 1013.60 1013.42 1013.36 1013.06 1012.66 1012.55 1012.48 1012.45 1012.22 1011.89 1011.72 1011.86 1011.94 1011.64 1011.58 1011.49 1011.60 1011.52 1011.48 1011.34 1011.08
1016.82 1016.73 1016.65 1016.58 1016.83 1016.89 1016.88 1016.85 1016.61 1016.49 1016.22 1016.07 1016.11 1016.15 1016.27 1016.62 1016.03 1015.18 1014.37 1013.84 1013.53 1013.29 1013.11 1012.80 1012.67 1012.32 1011.95 1011.75 1012.02 1012.10 1012.00 1011.59 1011.05 1010.77 1010.65 1010.46 1010.70 1010.86 1011.11 1011.37 1011.23 1011.25 1011.06
1017.59 1017.39 1017.30 1017.38 1017.39 1017.37 1017.34 1017.16 1016.75 1016.45 1016.14 1016.01 1016.11 1016.42 1016.66 1016.93 1016.65 1016.21 1015.67 1015.10 1014.44 1013.95 1013.15 1012.73 1012.34 1012.51 1011.95 1011.28 1011.41 1011.67 1011.74 1011.28 1011.07 1010.66 1010.34 1010.27 1010.10 1010.23 1010.56 1010.67 1010.57 1010.78 1010.76
1018.02 1017.85 1017.88 1017.80 1017.73 1017.79 1017.60 1017.26 1016.90 1016.62 1016.20 1016.17 1016.20 1016.47 1016.69 1016.85 1016.88 1016.76 1016.56 1016.27 1015.87 1015.07 1013.99 1013.24 1012.59 1012.47 1012.21 1011.99 1011.84 1011.56 1011.18 1010.90 1010.84 1010.70 1010.35 1009.97 1009.66 1009.52 1009.59 1009.62 1009.71 1009.88 1010.08
1018.59 1018.51 1018.45 1018.24 1018.08 1017.83 1017.65 1017.30 1016.97 1016.81 1016.75 1016.85 1016.91 1017.05 1016.92 1016.84 1016.75 1016.66 1016.61 1016.60 1015.97 1015.71 1014.67 1013.98 1013.46 1012.67 1012.18 1011.80 1011.85 1011.30 1010.92 1010.81 1010.74 1010.59 1010.24 1009.76 1009.34 1008.98 1008.56 1008.60 1008.73 1008.92 1008.99
1019.35 1019.31 1018.94 1018.51 1018.21 1017.87 1017.74 1017.41 1017.25 1017.26 1017.18 1017.16 1017.21 1017.25 1017.14 1016.98 1016.70 1016.53 1016.36 1016.17 1015.83 1015.53 1014.76 1014.29 1013.37 1012.48 1011.87 1011.35 1010.91 1010.40 1010.26 1010.43 1010.38 1010.15 1009.74 1009.24 1008.70 1008.13 1007.95 1007.99 1008.15 1008.21 1008.50
1019.76 1019.59 1019.19 1018.98 1018.67 1018.13 1017.70 1017.45 1017.25 1017.10 1017.26 1017.20 1017.14 1017.23 1017.11 1017.04 1016.75 1016.44 1016.08 1015.79 1015.52 1015.02 1014.27 1013.71 1013.32 1012.14 1011.87 1011.15 1010.51 1010.10 1009.98 1009.78 1009.50 1009.14 1008.76 1008.28 1007.94 1007.77 1007.84 1007.86 1008.36 1008.49 1008.58
1019.79 1019.75 1019.50 1019.08 1018.85 1018.53 1017.97 1017.66 1017.49 1016.94 1016.87 1016.86 1016.80 1016.81 1016.96 1016.97 1016.74 1016.46 1015.91 1015.56 1015.29 1014.87 1014.57 1013.96 1013.09 1012.47 1012.19 1011.77 1011.38 1010.98 1010.52 1010.26 1009.76 1009.06 1008.44 1007.81 1007.57 1007.48 1007.45 1007.62 1008.01 1008.37 1008.57
1019.89 1019.76 1019.43 1019.02 1018.77 1018.52 1018.12 1017.84 1017.22 1016.66 1016.40 1016.27 1016.37 1016.56 1016.46 1016.58 1016.54 1016.20 1015.38 1015.05 1014.56 1014.22 1014.08 1014.11 1013.88 1013.36 1012.61 1012.79 1012.19 1011.67 1011.26 1010.69 1010.34 1009.80 1009.03 1008.22 1007.31 1006.90 1007.02 1007.23 1007.59 1008.01 1008.36
1019.92 1019.66 1019.39 1019.20 1018.93 1018.60 1018.29 1018.00 1017.73 1016.76 1016.29 1016.21 1016.20 1016.10 1016.13 1016.45 1016.28 1015.88 1014.87 1014.85 1014.10 1013.94 1014.33 1014.24 1014.53 1014.05 1013.87 1013.64 1013.17 1012.72 1012.18 1011.55 1011.03 1010.43 1009.65 1008.75 1007.56 1006.59 1006.50 1006.63 1007.08 1007.53 1007.92
1019.64 1019.45 1019.42 1019.27 1018.98 1018.66 1018.30 1017.78 1017.34 1017.13 1016.77 1016.59 1016.05 1015.83 1015.85 1016.07 1015.75 1015.45 1015.27 1014.65 1014.85 1014.86 1015.26 1015.12 1014.90 1014.48 1014.24 1014.11 1013.81 1013.37 1012.74 1011.77 1011.29 1010.90 1010.12 1009.32 1008.45 1007.27 1006.75 1006.13 1006.53 1006.85 1007.27
1019.65 1019.49 1019.20 1019.05 1018.78 1018.37 1018.00 1017.50 1017.10 1016.67 1016.60 1016.40 1016.14 1015.65 1015.77 1015.69 1015.30 1015.15 1015.25 1015.22 1015.49 1015.52 1015.32 1015.14 1015.03 1014.78 1014.41 1014.06 1013.84 1013.54 1013.19 1012.69 1012.08 1011.38 1010.47 1010.10 1009.38 1008.16 1007.75 1007.02 1005.77 1006.02 1006.56
1019.32 1019.10 1018.86 1018.86 1018.52 1018.05 1017.68 1017.25 1016.77 1016.54 1016.37 1016.24 1016.08 1015.83 1015.58 1015.61 1015.47 1015.22 1015.18 1015.34 1015.58 1015.67 1015.53 1015.32 1015.09 1014.89 1014.54 1014.41 1014.02 1013.56 1013.10 1012.93 1012.30 1011.70 1011.18 1010.63 1009.85 1008.71 1008.94 1008.18 1007.32 1006.37 1005.94
1018.99 1018.88 1018.58 1018.46 1018.10 1017.70 1017.45 1017.15 1016.57 1016.30 1016.13 1015.95 1015.70 1015.36 1015.01 1015.30 1015.14 1015.20 1015.24 1015.35 1015.46 1015.54 1015.46 1015.29 1015.09 1014.87 1014.69 1014.43 1014.14 1013.64 1013.18 1013.16 1012.98 1012.26 1011.68 1011.25 1010.75 1009.65 1009.31 1008.74 1007.79 1007.11 1006.38
1018.78 1018.59 1018.37 1018.08 1017.72 1017.44 1017.12 1016.74 1016.32 1015.97 1015.81 1015.59 1015.36 1015.10 1014.85 1015.06 1014.97 1015.09 1015.17 1015.13 1015.16 1015.18 1015.11 1015.05 1014.98 1014.76 1014.62 1014.34 1014.04 1013.96 1014.05 1013.83 1013.46 1013.02 1012.41 1011.75 1010.79 1009.84 1009.86 1009.40 1008.30 1007.54 1006.88
1018.51 1018.36 1018.08 1017.79 1017.45 1017.05 1016.65 1016.24 1016.00 1015.81 1015.60 1015.38 1015.18 1015.05 1015.00 1014.93 1014.84 1014.86 1014.88 1014.83 1014.88 1014.93 1014.70 1014.65 1014.63 1014.60 1014.37 1014.14 1013.96 1014.28 1014.07 1013.91 1013.61 1013.05 1012.33 1011.60 1011.28 1010.88 1010.15 1009.11 1008.93 1008.34 1007.39
1018.06 1017.86 1017.51 1017.15 1016.85 1016.53 1016.22 1015.88 1015.72 1015.56 1015.43 1015.27 1015.12 1014.95 1014.92 1014.87 1014.82 1014.52 1014.49 1014.41 1014.67 1014.58 1014.39 1014.22 1014.09 1014.03 1013.99 1013.95 1013.80 1013.87 1013.91 1013.70 1013.47 1013.29 1012.60 1011.98 1011.27 1010.78 1010.17 1009.54 1009.02 1009.03 1008.00
1017.49 1017.35 1016.96 1016.62 1016.35 1016.17 1015.90 1015.68 1015.64 1015.53 1015.39 1015.26 1015.15 1014.98 1014.80 1014.68 1014.58 1014.42 1014.28 1014.05 1014.03 1014.01 1013.98 1013.80 1013.62 1013.43 1013.33 1013.37 1013.30 1013.49 1013.72 1013.62 1013.34 1013.16 1012.94 1012.47 1011.94 1011.36 1010.70 1010.10 1009.93 1008.81 1008.14
1017.07 1016.79 1016.47 1016.34 1016.01 1015.79 1015.83 1015.74 1015.60 1015.48 1015.39 1015.31 1015.08 1014.87 1014.73 1014.57 1014.44 1014.24 1013.95 1013.86 1013.75 1013.64 1013.44 1013.27 1013.13 1012.93 1012.82 1012.82 1012.92 1013.11 1013.42 1013.36 1013.31 1013.16 1012.76 1012.44 1011.97 1011.07 1010.78 1010.47 1009.89 1009.11 1008.25
Wind_Speed
7 7 8 6 7 6 5 4 4 3 5 5 6 6 6 6 6 5 6 7 6 6 4 5 7 5 4 4 3 3 4 2 4 5 3 4 3 4 5 5 5 5 5
7 8 8 8 7 6 4 4 5 6 5 6 6 6 7 7 7 6 7 6 7 6 6 5 6 4 6 5 4 6 3 4 3 7 4 3 4 3 4 6 6 4 4
8 7 7 7 6 5 5 5 5 5 6 6 6 6 7 7 7 7 7 7 7 6 6 5 6 6 5 5 5 4 4 4 4 3 5 3 4 2 4 4 5 5 4
8 8 8 7 7 6 7 6 7 7 7 7 7 7 7 7 7 7 7 6 6 6 6 6 6 6 7 7 5 6 5 3 3 4 4 4 3 4 2 3 5 2 4
8 7 7 7 7 7 7 7 8 7 7 7 7 7 7 6 6 7 6 7 7 7 7 6 7 8 14 9 5 6 5 4 3 3 4 3 3 3 3 3 3 4 3
6 6 6 6 7 7 7 7 7 7 7 6 7 7 7 5 9 9 8 6 7 6 6 7 6 10 11 13 10 13 9 5 5 3 3 4 5 4 2 2 2 2 3
3 2 3 5 6 5 4 4 5 4 4 5 6 6 7 7 11 11 12 6 6 6 6 6 7 7 8 6 7 9 9 12 12 6 7 7 6 5 3 3 3 3 4
9 7 7 7 7 6 6 6 6 6 6 6 6 7 7 11 22 16 11 7 6 7 7 8 7 10 8 7 6 6 6 6 6 6 10 11 9 6 5 4 3 4 3
8 7 8 8 6 6 6 6 5 5 5 5 8 11 12 10 20 24 17 5 5 7 7 7 7 9 11 12 6 6 7 7 6 9 10 15 9 10 6 2 3 1 2
9 7 7 7 7 7 5 5 3 3 2 2 4 6 11 7 18 20 18 9 9 7 8 7 9 11 13 9 7 5 6 6 5 6 6 5 8 7 10 7 4 4 3
7 8 8 7 7 6 5 5 5 6 5 3 2 5 6 7 9 15 13 8 7 8 7 7 6 16 16 10 8 4 6 3 6 6 5 5 5 5 5 7 7 5 4
6 7 7 7 5 6 7 6 7 6 7 7 7 5 3 4 8 9 7 6 8 7 9 8 9 17 17 11 7 12 13 7 4 5 5 5 5 5 5 5 8 6 5
7 7 7 6 6 6 6 6 3 6 4 4 3 4 4 2 3 6 8 9 7 7 6 11 20 16 15 10 13 16 12 5 7 6 7 6 5 5 4 1 2 5 4
6 7 6 6 7 7 5 3 3 4 2 3 3 3 3 3 3 4 5 4 7 7 10 8 13 12 17 7 7 6 4 5 7 7 7 6 4 2 3 3 2 3 3
5 6 6 5 6 6 5 4 3 3 4 3 4 3 1 3 3 5 9 7 5 7 8 5 5 6 6 8 8 9 8 8 8 7 8 6 4 4 3 3 3 3 3
4 5 5 4 5 4 4 6 9 10 11 10 7 3 3 1 5 10 17 13 14 9 1 3 4 3 5 5 6 8 9 10 8 10 8 8 6 4 4 4 3 4 4
4 6 5 5 4 4 5 4 5 9 10 4 7 10 4 3 9 12 18 16 15 4 3 3 4 4 4 4 5 6 8 9 10 10 9 9 9 4 4 4 6 5 4
5 9 2 4 5 5 5 5 5 5 2 3 6 7 8 9 12 13 14 8 9 8 8 7 7 5 3 4 4 7 8 9 9 9 9 9 9 9 6 4 7 7 6
5 4 3 4 5 6 5 5 5 3 2 3 4 6 6 12 13 10 4 5 3 3 4 5 5 6 5 4 3 4 6 8 7 8 9 8 9 8 9 11 4 11 10
5 9 4 5 5 5 6 5 4 3 3 4 4 6 2 3 3 1 3 4 4 3 3 4 4 5 6 5 5 4 4 6 8 7 8 8 9 9 9 10 9 4 8
4 4 8 5 5 4 4 7 4 3 3 4 5 5 5 3 4 2 3 3 3 3 3 3 3 4 4 4 5 5 5 8 10 10 8 8 8 7 7 9 8 10 5
4 5 5 5 4 5 5 6 5 4 4 3 3 4 4 1 1 3 3 2 1 1 0 2 2 3 4 5 7 8 7 7 6 7 8 8 9 9 8 7 7 8 9
4 5 5 5 5 7 6 5 4 3 4 4 4 3 4 3 2 2 2 1 2 2 2 1 0 2 2 4 4 3 4 4 5 8 8 8 7 7 7 8 8 8 9
5 6 6 5 5 7 7 4 4 5 4 3 4 3 2 3 3 1 2 2 3 3 3 3 3 4 2 2 3 3 2 3 5 7 11 8 8 7 7 7 10 12 9
5 5 5 6 5 5 5 4 4 4 4 3 3 3 3 4 4 4 4 2 3 4 5 4 4 6 6 5 2 4 4 4 5 4 7 9 9 9 7 7 8 9 13
5 6 5 4 5 3 3 3 3 3 3 4 4 4 4 3 4 5 4 4 3 4 5 4 5 7 3 1 3 3 5 2 3 3 6 7 8 8 6 8 11 8 10
Wind_Direction
169 159 158 146 148 142 152 179 199 214 218 234 235 227 228 238 247 243 242 253 261 265 274 262 264 254 259 262 276 279 279 200 244 292 261 289 288 299 313 309 290 291 272
159 160 145 134 133 127 153 209 231 226 237 235 245 241 233 235 242 233 241 256 252 260 271 269 278 261 255 249 248 263 255 269 215 282 272 284 276 292 287 304 282 270 259
161 126 128 139 147 178 206 223 238 241 250 264 262 248 243 244 240 240 240 249 250 244 251 259 272 275 272 259 245 252 263 258 253 252 285 268 272 274 315 289 269 275 263
119 131 140 149 182 201 209 215 222 231 239 252 259 260 254 252 248 248 246 245 227 242 254 260 266 264 254 255 242 242 250 276 283 280 284 283 258 288 239 278 308 289 280
114 138 168 184 197 211 216 223 227 226 230 236 253 264 264 257 254 251 247 231 244 260 267 268 266 264 274 252 220 237 236 240 254 272 278 284 284 308 291 281 278 281 281
136 175 199 211 221 222 228 235 242 251 252 247 256 258 267 268 261 241 218 236 247 250 269 277 268 281 276 273 251 241 221 218 237 221 250 257 271 251 256 263 279 311 290
175 314 341 26 8 341 315 354 357 336 311 293 286 280 277 272 271 269 259 245 241 245 257 267 282 278 274 272 278 274 256 235 224 217 240 247 252 232 248 263 267 245 237
44 33 49 50 44 31 26 19 14 5 350 336 323 313 300 22 3 336 282 246 237 243 249 254 252 268 252 246 264 276 280 266 242 225 224 246 234 239 209 210 231 263 279
36 26 28 36 31 10 25 12 346 358 356 15 37 38 56 34 18 20 358 305 269 262 261 260 252 248 250 241 228 251 273 279 274 272 256 236 226 230 231 198 260 238 276
15 14 20 14 10 353 3 341 308 319 325 20 78 81 65 52 26 22 20 358 353 343 326 314 316 336 309 230 204 208 261 269 289 313 319 290 245 236 210 213 191 214 207
12 24 13 359 349 37 349 328 328 322 302 354 54 100 81 72 38 24 21 12 354 328 326 330 341 355 347 338 317 248 233 258 294 298 292 284 268 235 218 209 204 196 196
20 16 352 337 16 354 345 333 336 359 9 20 33 24 58 76 46 24 2 355 348 328 330 329 319 329 318 305 252 256 264 272 272 277 282 279 272 263 248 209 202 203 204
18 348 329 351 1 338 333 329 14 18 46 25 29 356 339 29 11 358 329 334 316 322 307 301 309 307 294 289 277 266 262 248 258 257 262 260 248 247 275 207 138 160 135
5 335 340 5 347 331 327 350 19 15 9 353 342 327 314 325 335 338 316 318 311 321 325 310 297 293 280 279 321 317 283 235 235 241 244 245 260 223 190 149 142 161 108
2 348 341 346 330 323 339 328 323 313 207 236 250 232 270 310 289 306 300 312 294 282 308 305 334 5 355 359 360 354 359 2 354 310 268 250 237 218 198 164 159 159 137
12 325 306 314 312 334 346 329 322 327 311 271 278 235 263 184 332 305 293 311 294 280 272 313 326 347 18 359 10 355 354 358 357 342 337 312 251 212 194 173 158 164 171
349 314 314 333 346 338 326 311 315 320 319 10 286 266 205 201 276 283 292 312 317 34 342 1 332 357 359 359 15 10 350 339 350 346 327 335 313 243 191 173 180 180 180
315 305 24 335 318 316 292 296 288 278 316 327 315 271 177 218 255 274 303 28 25 30 36 30 17 354 352 355 347 16 358 351 346 339 341 349 339 3 303 181 190 186 184
314 302 322 304 290 278 288 294 276 323 0 316 326 329 196 228 252 277 311 77 38 23 11 32 21 8 351 325 338 340 3 358 334 337 342 345 343 5 350 343 210 177 170
301 295 308 292 285 290 294 284 303 312 327 314 306 295 204 228 263 1 62 66 44 22 23 18 10 6 355 6 353 327 335 354 348 349 346 343 333 17 354 343 0 301 182
268 287 293 292 271 285 301 307 290 293 278 272 278 276 282 246 285 119 83 67 46 34 16 358 20 3 349 347 341 324 344 18 7 351 353 349 340 350 2 341 342 350 282
291 282 278 275 292 311 291 296 279 291 299 297 304 305 348 299 349 132 112 91 6 276 302 49 10 5 345 351 340 15 42 9 3 356 348 340 341 355 345 339 350 332 336
316 304 305 305 295 293 293 279 299 305 293 309 305 338 328 338 70 92 152 221 205 257 214 186 267 317 348 333 351 84 25 23 6 349 344 340 345 337 330 354 346 339 333
262 268 267 270 283 283 278 290 299 303 311 315 312 315 350 322 295 188 223 215 274 246 256 237 236 224 234 295 318 86 57 42 25 354 338 336 330 334 332 357 345 328 335
280 282 280 276 280 290 323 316 321 327 320 329 324 317 311 321 332 335 305 261 231 233 251 261 266 245 223 231 302 96 108 79 42 356 350 324 325 332 333 327 323 338 342
283 282 280 313 277 295 316 315 316 315 325 308 310 314 314 337 308 290 285 284 289 271 262 261 261 277 220 227 109 65 137 125 54 353 350 330 322 326 334 323 324 322 340